Regional Weather Roundup
Issued by NWS

Home | Current Version | Previous Version | Graphics & Text | Print | Product List | Glossary On
Versions: 1 2 3 4 5 6 7 8 9 10 11 12 13 14 15 16 17 18 19 20 21 22 23 24 25 26 27
000
ASUS45 KBOI 230110
RWRID

IDAHO REGIONAL WEATHER ROUNDUP
NATIONAL WEATHER SERVICE BOISE ID
700 PM MDT MON MAY 22 2017

NOTE: "FAIR" INDICATES FEW OR NO CLOUDS BELOW 12000 FEET
WITH NO SIGNIFICANT WEATHER AND/OR OBSTRUCTIONS TO VISIBILITY

IDZ012-014-230200-
SOUTHWEST IDAHO


CITY           SKY/WX    TMP DP  RH WIND       PRES   REMARKS
BOISE          SUNNY     80  40  23 NW12      30.09F
CALDWELL       SUNNY     81  37  20 NW7       30.09F
MOUNTAIN HOME  SUNNY     82  29  15 NW15      30.08F
$$

IDZ016-017-230200-
SOUTHCENTRAL IDAHO


CITY           SKY/WX    TMP DP  RH WIND       PRES   REMARKS
BURLEY         FAIR      74  35  24 W9        30.12F
JEROME         SUNNY     75  37  25 W17       30.13F
TWIN FALLS     SUNNY     75  36  24 W13       30.14F
$$

IDZ019>023-230200-
SOUTHEAST IDAHO


CITY           SKY/WX    TMP DP  RH WIND       PRES   REMARKS
IDAHO FALLS    PTSUNNY   72  38  29 SW8       30.16F
POCATELLO      PTSUNNY   72  40  31 SW14      30.14F
REXBURG        CLOUDY    67  35  30 NE7       30.17R
$$

IDZ006-010-011-018-031-032-230200-
CENTRAL IDAHO MOUNTAINS


CITY           SKY/WX    TMP DP  RH WIND       PRES   REMARKS
MCCALL         SUNNY     73  19  13 NW12      30.19F
HAILEY         MOSUNNY   72  41  33 S12       30.17F
STANLEY          N/A     69  19  15 NW9       30.26F
SALMON         SUNNY     72  43  35 N9        30.12F
CHALLIS        SUNNY     74  37  26 N8        30.16S
$$

IDZ002-004-006-007-026-230200-
NORTHERN IDAHO


CITY           SKY/WX    TMP DP  RH WIND       PRES   REMARKS
LEWISTON       SUNNY     85  34  16 N5        30.07F
LOWELL           N/A     73  47  39 CALM      30.05F
COEUR D`ALENE  SUNNY     79  48  33 SW6       30.12F HAZE
MULLAN PASS    SUNNY     64  32  30 VRB5      30.28F
$$




USA.gov is the U.S. government's official web portal to all federal, state and local government web resources and services.